OBJECT D

Satellite information

Favourite Embed

Satellite Type and Status

UNKNOWNIN ORBIT

Key statistics

Satellite OBJECT D at a glance.

Uptime

592

Days in orbit

Revolutions

≈ 15.3

Per day

Orbit

SSO

Sun Synchronous Orbit

Inclination

97.5

Latest

Satellite identification and parameters

Extended collection of information and parameters for OBJECT D.

Object identification

Identified? True

Debris? False

Object name: OBJECT D

International designator: 2024-016D

Object number (NORAD): 58823

Object ID (CCSDS): 58823

Country: PEOPLES REPUBLIC OF CHINA (PRC)

Current information (Y/N): Y

RCS size: MEDIUM

Orbital parameters

Period: 93.915 minutes

Inclination: 97.4599 deg

SMA: 6844.107 km

Apoapsis: 472.425 km

Periapsis: 459.518 km

RAAN: 327.9813 deg

Eccentricy: 0.00094292

Argument of periapsis: 28.6966 deg

Mean anomaly: 331.4793 deg

Mean motion: 15.33301591 rev/day

Mean motion (dot): 0.00024721 rev/day2

B* drag term: 0.00076807153 1/REarth

Two-line elements (TLE)

Creation date: Sept. 6, 2025, 2:09 a.m.

Reference frame: TEME

Reference center: EARTH

Epoch: Sept. 5, 2025, 11:39 p.m. UTC

TLE line 0: 0 OBJECT D

TLE line 1: 1 58823U 24016D 25248.98543859 .00024721 00000-0 76807-3 0 9998

TLE line 2: 2 58823 97.4599 327.9813 0009429 28.6966 331.4793 15.33301591 89968

Live tracking on map

Real-time ground track for satellite OBJECT D.

In-orbit conjunctions

There are no conjunctions computed for OBJECT D, at the moment. Check back to stay up to date, as we update our databases every day.

Go to all conjunctions

Associated space launch

Carries 5 Earth and spatial observation satellites manufactured by MINOSPACE; details TBD: * Taijing-1-03 * Taijing-2-02 * Taijing-2-04 * Taijing-3-02 * Taijing-4-03

OBJECT D was lifted into orbit during the mission ‘Kinetica 1 | Flight 3’, on board a Kinetica 1 space rocket.

The launch took place on Jan. 23, 2024, 4:03 a.m. from Launch Area 130.

For more information about the launch, click the button.

Launch to space Kinetica 1 | Flight 3
Kinetica 1 | Flight 3

Agency: N/A

Status: Launch Successful

Launch date: Jan. 23, 2024, 4:03 a.m. UTC

Rocket: Kinetica 1

Launch pad: Launch Area 130

Location: Jiuquan Satellite Launch Center, People's Republic of China

...

Latest news about this satellite

There are no fresh news available about this satellite. Check back as we update our databases every day.


Newsletter sign-up

Weekly statistics, charts and insights to help you stay on top of the space industry.